Wadena, MN

9:05 AM CDT on April 30, 2017 (GMT -0500)
Wadena Municipal

Weather History for KADC - March, 2013

Change the Weather History Date:

Monday, March 18, 2013

  Actual Average Record
Temperature  
Mean Temperature 16 °F -  
Max Temperature 28 °F 34 °F 69 °F (2012)
Min Temperature 5 °F 16 °F -19 °F (1993)
Degree Days  
Heating Degree Days 48    
Moisture  
Dew Point 11 °F    
Average Humidity 85    
Maximum Humidity 100    
Minimum Humidity 73    
Precipitation  
Precipitation 0.03 in - - ()
Sea Level Pressure  
Sea Level Pressure 29.59 in    
Wind  
Wind Speed 18 mph (WSW)    
Max Wind Speed 28 mph    
Max Gust Speed 39 mph    
Visibility 2 miles    
Events Snow    
Averages and records for this station are not official NWS values.
T = Trace of Precipitation, MM = Missing Value Source: NWS Daily Summary

Daily Weather History Graph

Daily Weather History Graph

Search for Another Location

Airport or City:

Trip Planner

Search our weather history database for the weather conditions in past years. The results will help you decide how hot, cold, wet, or windy it might be!

Date:

Astronomy

Mar. 18, 2013 Rise Set
Actual Time 7:27 AM CDT 7:31 PM CDT
Civil Twilight 6:57 AM CDT 8:01 PM CDT
Nautical Twilight 6:22 AM CDT 8:36 PM CDT
Astronomical Twilight 5:45 AM CDT 9:12 PM CDT
Moon 11:07 AM CDT (3/18) 1:50 AM CDT (3/18)
Length of Visible Light 13h 03m
Length of Day
12h 03m
Waxing Crescent, 41% of the Moon is Illuminated
Mar 18
Waxing Crescent
Mar 19
First Quarter
Mar 27
Full
Apr 2
Last Quarter
Apr 10
New

Hourly Weather History & Observations

Time (CDT) Temp. Windchill Dew Point Humidity Pressure Visibility Wind Dir Wind Speed Gust Speed Precip Events Conditions
12:15 AM 17.6 °F 1.7 °F 14.0 °F 86% 29.67 in 0.8 mi SE 18.4 mph 23.0 mph N/A Snow Snow
12:34 AM 17.6 °F 3.2 °F 15.8 °F 93% 29.66 in 0.5 mi SE 15.0 mph - N/A Snow Snow
12:53 AM 17.6 °F 4.3 °F 15.8 °F 93% 29.65 in 0.8 mi SE 12.7 mph - N/A Snow Snow
1:15 AM 17.6 °F 4.3 °F 15.8 °F 93% 29.64 in 1.0 mi ESE 12.7 mph - N/A Snow Light Snow
1:35 AM 17.6 °F 5.0 °F 15.8 °F 93% 29.63 in 1.5 mi SE 11.5 mph - 0.01 in Snow Light Snow
1:53 AM 17.6 °F 3.2 °F 15.8 °F 93% 29.62 in 1.8 mi SE 15.0 mph - 0.02 in Snow Light Snow
2:14 AM 19.4 °F 5.5 °F 17.6 °F 93% 29.61 in 1.2 mi SE 15.0 mph - N/A Snow Light Snow
2:35 AM 19.4 °F 6.0 °F 17.6 °F 93% 29.59 in 1.8 mi SE 13.8 mph - N/A Snow Light Snow
2:53 AM 19.4 °F 5.5 °F 17.6 °F 93% 29.58 in 1.8 mi SE 15.0 mph - N/A Snow Light Snow
3:15 AM 19.4 °F 5.5 °F 17.6 °F 93% 29.56 in 0.8 mi SE 15.0 mph - 0.01 in Snow Snow
3:34 AM 19.4 °F 5.0 °F 17.6 °F 93% 29.55 in 1.5 mi SE 16.1 mph - 0.01 in Snow Light Snow
3:53 AM 19.4 °F 5.5 °F 19.4 °F 100% 29.53 in 1.0 mi SE 15.0 mph - 0.01 in Snow Light Snow
4:15 AM 21.2 °F 7.8 °F 19.4 °F 93% 29.52 in 1.0 mi SE 15.0 mph - N/A Snow Light Snow
4:35 AM 21.2 °F 7.3 °F 21.2 °F 100% 29.50 in 1.5 mi SE 16.1 mph - N/A Snow Light Snow
4:53 AM 23.0 °F 10.1 °F 21.2 °F 93% 29.48 in 1.8 mi SE 15.0 mph - N/A Snow Light Snow
5:15 AM 23.0 °F 9.6 °F 21.2 °F 93% 29.47 in 1.0 mi SE 16.1 mph 21.9 mph N/A Snow Light Snow
5:34 AM 24.8 °F 12.4 °F 21.2 °F 86% 29.45 in 0.8 mi SE 15.0 mph 21.9 mph N/A Snow Snow
5:52 AM 24.8 °F 12.4 °F 21.2 °F 86% 29.44 in 1.2 mi SE 15.0 mph - N/A Snow Light Snow
6:15 AM 24.8 °F 11.5 °F 23.0 °F 93% 29.42 in 2.5 mi SSE 17.3 mph 20.7 mph N/A Snow Light Snow
6:34 AM 26.6 °F 13.4 °F 24.8 °F 93% 29.41 in 4.0 mi SSE 18.4 mph 25.3 mph N/A   Overcast
6:52 AM 26.6 °F 13.4 °F 24.8 °F 93% 29.39 in 3.0 mi SSE 18.4 mph - N/A   Overcast
7:15 AM 28.4 °F 16.6 °F 26.6 °F 93% 29.38 in 4.0 mi South 16.1 mph 25.3 mph N/A   Overcast
7:35 AM 24.8 °F 11.5 °F 23.0 °F 93% 29.39 in 1.8 mi South 17.3 mph - N/A   Overcast
7:53 AM 23.0 °F 8.3 °F 21.2 °F 93% 29.39 in 1.2 mi SW 19.6 mph 27.6 mph N/A   Overcast
8:15 AM 19.4 °F 2.1 °F 17.6 °F 93% 29.42 in 1.2 mi WSW 24.2 mph 32.2 mph N/A Snow Light Snow
8:34 AM 17.6 °F -0.3 °F 15.8 °F 93% 29.43 in 1.2 mi WSW 24.2 mph 29.9 mph N/A Snow Light Snow
8:53 AM 15.8 °F -1.5 °F 14.0 °F 93% 29.45 in 1.5 mi WSW 20.7 mph 27.6 mph N/A Snow Light Snow
9:15 AM 15.8 °F 1.4 °F 12.2 °F 86% 29.46 in 4.0 mi WSW 13.8 mph 25.3 mph N/A   Overcast
9:35 AM 14.0 °F -0.8 °F 10.4 °F 86% 29.47 in 5.0 mi WSW 13.8 mph 26.5 mph N/A   Overcast
9:52 AM 14.0 °F -4.3 °F 10.4 °F 86% 29.47 in 3.0 mi West 21.9 mph 26.5 mph N/A Snow Light Snow
10:14 AM 12.2 °F -4.8 °F 10.4 °F 92% 29.48 in 2.5 mi WSW 17.3 mph 24.2 mph N/A Snow Light Snow
10:34 AM 12.2 °F -4.3 °F 8.6 °F 85% 29.49 in 2.0 mi WSW 16.1 mph 23.0 mph N/A Snow Light Snow
10:53 AM 12.2 °F -4.8 °F 8.6 °F 85% 29.51 in 2.0 mi WSW 17.3 mph 25.3 mph N/A Snow Light Snow
11:15 AM 12.2 °F -5.8 °F 8.6 °F 85% 29.51 in 2.0 mi WSW 19.6 mph 27.6 mph N/A Snow Light Snow
11:35 AM 12.2 °F -6.3 °F 8.6 °F 85% 29.51 in 1.0 mi West 20.7 mph 32.2 mph N/A Snow Light Snow
11:52 AM 12.2 °F -8.2 °F 8.6 °F 85% 29.52 in 1.0 mi West 26.5 mph 31.1 mph N/A Snow Light Snow
12:14 PM 12.2 °F -8.2 °F 6.8 °F 79% 29.53 in 1.0 mi West 26.5 mph 33.4 mph N/A Snow Light Snow
12:35 PM 12.2 °F -7.9 °F 6.8 °F 79% 29.54 in 1.2 mi West 25.3 mph 34.5 mph N/A Snow Light Snow
12:52 PM 12.2 °F -6.7 °F 6.8 °F 79% 29.55 in 1.5 mi West 21.9 mph 28.8 mph N/A Snow Light Snow
1:14 PM 12.2 °F -4.8 °F 6.8 °F 79% 29.56 in 1.5 mi West 17.3 mph 27.6 mph N/A Snow Light Snow
1:34 PM 14.0 °F -3.0 °F 8.6 °F 79% 29.56 in 1.8 mi West 18.4 mph 27.6 mph N/A Snow Light Snow
1:53 PM 12.2 °F -4.8 °F 6.8 °F 79% 29.57 in 1.2 mi West 17.3 mph 27.6 mph N/A Snow Light Snow
2:14 PM 14.0 °F -3.0 °F 6.8 °F 73% 29.57 in 2.0 mi West 18.4 mph 23.0 mph N/A Snow Light Snow
2:35 PM 14.0 °F -3.9 °F 6.8 °F 73% 29.57 in 1.5 mi West 20.7 mph 31.1 mph N/A Snow Light Snow
2:53 PM 14.0 °F -4.3 °F 6.8 °F 73% 29.58 in 2.0 mi WNW 21.9 mph 28.8 mph N/A Snow Light Snow
3:14 PM 14.0 °F -3.4 °F 6.8 °F 73% 29.58 in 1.8 mi WNW 19.6 mph 32.2 mph N/A Snow Light Snow
3:35 PM 12.2 °F -6.7 °F 6.8 °F 79% 29.59 in 1.8 mi WNW 21.9 mph 35.7 mph N/A Snow Light Snow
3:53 PM 12.2 °F -4.3 °F 6.8 °F 79% 29.60 in 1.2 mi WNW 16.1 mph 28.8 mph N/A Snow Light Snow
4:14 PM 12.2 °F -4.3 °F 6.8 °F 79% 29.61 in 1.8 mi WNW 16.1 mph 29.9 mph N/A Snow Light Snow
4:34 PM 12.2 °F -8.2 °F 6.8 °F 79% 29.62 in 1.2 mi WNW 26.5 mph 34.5 mph N/A Snow Light Snow
4:53 PM 12.2 °F -6.7 °F 6.8 °F 79% 29.64 in 1.5 mi WNW 21.9 mph 33.4 mph N/A Snow Light Snow
5:15 PM 12.2 °F -8.2 °F 6.8 °F 79% 29.64 in 1.5 mi WNW 26.5 mph 32.2 mph N/A Snow Light Snow
5:34 PM 12.2 °F -6.7 °F 6.8 °F 79% 29.66 in 1.5 mi WNW 21.9 mph 31.1 mph N/A Snow Light Snow
5:52 PM 10.4 °F -11.0 °F 6.8 °F 85% 29.67 in 1.2 mi WNW 27.6 mph 39.1 mph N/A Snow Light Snow
6:14 PM 10.4 °F -10.7 °F 5.0 °F 79% 29.68 in 2.0 mi WNW 26.5 mph 32.2 mph N/A   Haze
6:34 PM 10.4 °F -10.7 °F 5.0 °F 79% 29.69 in 1.8 mi WNW 26.5 mph 33.4 mph N/A Snow Light Snow
6:52 PM 10.4 °F -9.9 °F 5.0 °F 79% 29.70 in 1.2 mi WNW 24.2 mph 34.5 mph N/A Snow Light Snow
7:14 PM 8.6 °F -11.9 °F 5.0 °F 85% 29.71 in 1.5 mi WNW 23.0 mph 28.8 mph N/A Snow Light Snow
7:35 PM 8.6 °F -11.0 °F 5.0 °F 85% 29.73 in 1.8 mi WNW 20.7 mph 32.2 mph N/A Snow Light Snow
7:53 PM 8.6 °F -11.0 °F 3.2 °F 79% 29.74 in 3.0 mi WNW 20.7 mph 28.8 mph N/A Snow Light Snow
8:15 PM 8.6 °F -12.7 °F 3.2 °F 79% 29.75 in 3.0 mi WNW 25.3 mph 28.8 mph N/A Snow Light Snow
8:35 PM 8.6 °F -10.0 °F 3.2 °F 79% 29.75 in 4.0 mi WNW 18.4 mph 29.9 mph N/A Snow Light Snow
8:53 PM 8.6 °F -10.5 °F 3.2 °F 79% 29.76 in 4.0 mi WNW 19.6 mph 29.9 mph N/A   Haze
9:15 PM 6.8 °F -11.8 °F 1.4 °F 79% 29.78 in 3.0 mi WNW 17.3 mph 26.5 mph N/A Snow Light Snow
9:34 PM 6.8 °F -11.8 °F 3.2 °F 85% 29.78 in 2.0 mi WNW 17.3 mph 26.5 mph N/A Snow Light Snow
9:53 PM 6.8 °F -11.8 °F 3.2 °F 85% 29.78 in 2.5 mi WNW 17.3 mph 23.0 mph N/A Snow Light Snow
10:15 PM 6.8 °F -11.3 °F 1.4 °F 79% 29.80 in 3.0 mi WNW 16.1 mph 24.2 mph N/A Snow Light Snow
10:52 PM 6.8 °F -13.8 °F 1.4 °F 79% 29.80 in 3.0 mi WNW 21.9 mph 29.9 mph N/A   Haze
11:15 PM 5.0 °F -16.7 °F 1.4 °F 85% 29.81 in 4.0 mi NW 23.0 mph 33.4 mph N/A   Mostly Cloudy
11:35 PM 5.0 °F -15.2 °F -0.4 °F 78% 29.82 in 5.0 mi WNW 19.6 mph 28.8 mph N/A   Haze